Terminal Aerodrome Forecast
Issued by NWS Kansas City/Pleasant Hill, MO

Home | Current Version | Previous Version | Text Only | Print | Product List | Glossary On
Versions: 1 2 3 4 5 6 7 8 9 10 11 12 13 14 15 16 17 18 19 20
000
FTUS43 KEAX 161100
TAFMCI
TAF
KMCI 161126Z 1612/1712 32015G22KT P6SM OVC020
     FM161900 32012KT P6SM SCT025
     FM170600 36003KT P6SM SCT012=

USA.gov is the U.S. government's official web portal to all federal, state and local government web resources and services.